�������l�o���
Date,Time,MP-1(��Sv/h),MP-2(��Sv/h),MP-3(��Sv/h),MP-4(��Sv/h),MP-5(��Sv/h),MP-6(��Sv/h),MP-7(��Sv/h),MP-8(��Sv/h),����,����(m/s),���J
2017/09/08,00:00,0.930,1.459,0.964,1.755,1.206,0.515,0.935,0.861,��,3.2,�L
2017/09/08,00:10,0.931,1.458,0.964,1.751,1.205,0.517,0.933,0.861,��,4.4,�L
2017/09/08,00:20,0.931,1.456,0.961,1.749,1.203,0.515,0.932,0.860,��,4.0,�L
2017/09/08,00:30,0.929,1.456,0.958,1.746,1.201,0.516,0.932,0.859,���k��,3.7,�L
2017/09/08,00:40,0.928,1.453,0.960,1.749,1.201,0.513,0.933,0.860,�k��,3.1,�L
2017/09/08,00:50,0.924,1.456,0.959,1.749,1.198,0.512,0.931,0.858,���k��,3.6,�L
2017/09/08,01:00,0.925,1.454,0.957,1.744,1.196,0.511,0.932,0.855,���k��,3.8,�L
2017/09/08,01:10,0.923,1.449,0.958,1.746,1.192,0.511,0.929,0.859,�k��,3.9,�L
2017/09/08,01:20,0.923,1.451,0.958,1.743,1.195,0.512,0.930,0.858,���k��,3.2,�L
2017/09/08,01:30,0.922,1.449,0.954,1.744,1.194,0.511,0.928,0.858,�k,1.9,�L
2017/09/08,01:40,0.920,1.444,0.954,1.735,1.191,0.511,0.929,0.857,�k��,1.5,�L
2017/09/08,01:50,0.918,1.437,0.953,1.728,1.185,0.511,0.926,0.854,�k�k��,1.7,�L
2017/09/08,02:00,0.916,1.435,0.952,1.723,1.184,0.512,0.925,0.854,�k,2.6,�L
2017/09/08,02:10,0.917,1.432,0.950,1.722,1.185,0.511,0.923,0.855,�k,3.7,�L
2017/09/08,02:20,0.915,1.428,0.946,1.717,1.184,0.511,0.923,0.852,�k,3.3,�L
2017/09/08,02:30,0.915,1.433,0.949,1.716,1.183,0.510,0.923,0.855,�k,2.8,�L
2017/09/08,02:40,0.916,1.435,0.947,1.720,1.184,0.511,0.922,0.853,�k,4.3,�L
2017/09/08,02:50,0.915,1.430,0.948,1.717,1.182,0.510,0.923,0.850,�k,4.2,�L
2017/09/08,03:00,0.914,1.431,0.944,1.711,1.180,0.512,0.921,0.853,�k,3.0,�L
2017/09/08,03:10,0.916,1.430,0.946,1.715,1.183,0.511,0.924,0.851,�k,4.0,�L
2017/09/08,03:20,0.915,1.428,0.945,1.716,1.182,0.510,0.922,0.853,�k,3.6,�L
2017/09/08,03:30,0.916,1.431,0.947,1.715,1.181,0.509,0.924,0.853,�k�k��,3.5,�L
2017/09/08,03:40,0.914,1.432,0.944,1.718,1.183,0.509,0.923,0.852,�k,3.4,�L
2017/09/08,03:50,0.914,1.430,0.945,1.718,1.182,0.509,0.923,0.851,�k,4.6,�L
2017/09/08,04:00,0.915,1.431,0.943,1.717,1.184,0.507,0.924,0.853,�k,4.0,�L
2017/09/08,04:10,0.912,1.431,0.944,1.714,1.181,0.506,0.923,0.854,�k�k��,4.1,�L
2017/09/08,04:20,0.911,1.432,0.942,1.717,1.182,0.506,0.921,0.852,�k,4.1,�L
2017/09/08,04:30,0.912,1.430,0.947,1.714,1.183,0.506,0.921,0.849,�k,4.6,�L
2017/09/08,04:40,0.912,1.429,0.942,1.716,1.179,0.506,0.922,0.851,�k�k��,5.7,�L
2017/09/08,04:50,0.912,1.428,0.942,1.716,1.180,0.506,0.920,0.851,�k�k��,4.8,�L
2017/09/08,05:00,0.911,1.430,0.939,1.718,1.180,0.504,0.921,0.850,�k,5.1,�L
2017/09/08,05:10,0.910,1.427,0.942,1.713,1.181,0.502,0.918,0.851,�k,5.3,�L
2017/09/08,05:20,0.912,1.428,0.943,1.711,1.180,0.504,0.920,0.852,�k,4.9,�L
2017/09/08,05:30,0.911,1.429,0.939,1.710,1.181,0.505,0.920,0.851,�k,5.6,�L
2017/09/08,05:40,0.910,1.424,0.939,1.716,1.176,0.504,0.921,0.851,�k,5.0,�L
2017/09/08,05:50,0.910,1.425,0.939,1.712,1.181,0.503,0.919,0.850,�k,5.5,�L
2017/09/08,06:00,0.909,1.426,0.940,1.713,1.178,0.504,0.919,0.851,�k,6.1,�L
2017/09/08,06:10,0.909,1.424,0.936,1.713,1.178,0.504,0.919,0.849,�k,5.1,�L
2017/09/08,06:20,0.908,1.425,0.940,1.712,1.178,0.503,0.919,0.851,�k,5.7,�L
2017/09/08,06:30,0.908,1.427,0.939,1.711,1.178,0.502,0.921,0.849,�k,4.7,�L
2017/09/08,06:40,0.908,1.429,0.939,1.714,1.180,0.504,0.920,0.851,�k,4.7,�L
2017/09/08,06:50,0.910,1.426,0.939,1.711,1.180,0.502,0.920,0.852,�k,3.9,�L
2017/09/08,07:00,0.910,1.426,0.941,1.715,1.179,0.503,0.917,0.850,�k�k��,3.8,�L
2017/09/08,07:10,0.908,1.429,0.942,1.715,1.180,0.504,0.919,0.850,�k�k��,4.4,�L
2017/09/08,07:20,0.909,1.426,0.940,1.714,1.183,0.506,0.920,0.850,�k�k��,4.8,�L
2017/09/08,07:30,0.909,1.428,0.940,1.711,1.182,0.505,0.920,0.851,�k�k��,5.1,�L
2017/09/08,07:40,0.910,1.428,0.940,1.714,1.184,0.503,0.920,0.851,�k�k��,4.7,�L
2017/09/08,07:50,0.909,1.429,0.941,1.717,1.183,0.503,0.919,0.851,�k�k��,4.9,�L
2017/09/08,08:00,0.910,1.428,0.940,1.714,1.182,0.503,0.920,0.852,�k�k��,4.0,�L
2017/09/08,08:10,0.911,1.430,0.943,1.715,1.185,0.504,0.920,0.851,�k�k��,4.3,��
2017/09/08,08:20,0.912,1.433,0.940,1.715,1.183,0.504,0.922,0.854,�k�k��,3.7,��
2017/09/08,08:30,0.911,1.433,0.940,1.714,1.184,0.505,0.921,0.853,�k,4.4,��
2017/09/08,08:40,0.912,1.432,0.941,1.716,1.182,0.503,0.922,0.853,�k�k��,4.3,��
2017/09/08,08:50,0.912,1.431,0.939,1.718,1.184,0.505,0.922,0.854,�k�k��,4.4,��
2017/09/08,09:00,0.912,1.430,0.941,1.719,1.184,0.502,0.922,0.853,�k�k��,4.7,��
2017/09/08,09:10,0.912,1.432,0.941,1.719,1.184,0.503,0.924,0.853,�k�k��,4.6,��
2017/09/08,09:20,0.915,1.431,0.943,1.720,1.182,0.504,0.924,0.853,�k�k��,4.9,��
2017/09/08,09:30,0.915,1.432,0.942,1.723,1.185,0.503,0.924,0.852,�k,3.5,��
2017/09/08,09:40,0.915,1.432,0.941,1.722,1.188,0.505,0.925,0.853,�k�k��,5.9,��
2017/09/08,09:50,0.916,1.435,0.941,1.724,1.189,0.503,0.925,0.853,�k�k��,5.9,��
2017/09/08,10:00,0.918,1.437,0.944,1.722,1.190,0.504,0.926,0.853,�k�k��,5.7,��
2017/09/08,10:10,0.918,1.441,0.945,1.723,1.192,0.505,0.926,0.855,�k�k��,5.0,��
2017/09/08,10:20,0.919,1.438,0.945,1.728,1.189,0.505,0.925,0.855,�k�k��,6.7,��
2017/09/08,10:30,0.917,1.442,0.947,1.728,1.190,0.506,0.928,0.856,�k,5.1,��
2017/09/08,10:40,0.918,1.441,0.947,1.729,1.192,0.505,0.927,0.855,�k,5.6,�L
2017/09/08,10:50,0.917,1.439,0.945,1.726,1.191,0.506,0.926,0.855,�k,5.8,�L
2017/09/08,11:00,0.916,1.439,0.947,1.727,1.191,0.505,0.928,0.856,�k�k��,5.1,��
2017/09/08,11:10,0.919,1.443,0.947,1.730,1.194,0.504,0.928,0.853,�k,5.1,�L
2017/09/08,11:20,0.920,1.442,0.948,1.731,1.194,0.504,0.928,0.855,�k,5.0,�L
2017/09/08,11:30,0.918,1.443,0.946,1.729,1.194,0.505,0.929,0.856,�k,3.5,��
2017/09/08,11:40,0.921,1.443,0.944,1.730,1.195,0.506,0.928,0.856,�k,2.5,�L
2017/09/08,11:50,0.921,1.444,0.950,1.730,1.194,0.506,0.929,0.856,�k�k��,3.0,��
2017/09/08,12:00,0.920,1.446,0.948,1.733,1.197,0.504,0.928,0.856,�k�k��,2.8,��
2017/09/08,12:10,0.921,1.444,0.950,1.734,1.197,0.505,0.928,0.857,�k�k��,4.2,��
2017/09/08,12:20,0.922,1.447,0.948,1.732,1.198,0.506,0.929,0.856,�k��,2.9,��
2017/09/08,12:30,0.923,1.446,0.949,1.734,1.198,0.506,0.931,0.856,�k��,2.6,��
2017/09/08,12:40,0.922,1.447,0.949,1.735,1.197,0.507,0.931,0.856,�k��,3.0,��
2017/09/08,12:50,0.922,1.450,0.951,1.736,1.200,0.505,0.929,0.858,���k��,2.0,��
2017/09/08,13:00,0.923,1.451,0.949,1.736,1.202,0.507,0.930,0.857,��,2.3,��
2017/09/08,13:10,0.922,1.455,0.951,1.736,1.202,0.506,0.931,0.858,��,2.3,��
2017/09/08,13:20,0.922,1.452,0.951,1.738,1.203,0.506,0.931,0.856,��,3.3,��
2017/09/08,13:30,0.924,1.450,0.949,1.740,1.204,0.506,0.930,0.858,��,2.3,��
2017/09/08,13:40,0.922,1.453,0.953,1.740,1.206,0.506,0.932,0.857,���k��,2.3,��
2017/09/08,13:50,0.924,1.452,0.953,1.738,1.203,0.508,0.931,0.858,���k��,2.2,��
2017/09/08,14:00,0.926,1.452,0.951,1.739,1.204,0.508,0.932,0.858,���k��,2.3,��
2017/09/08,14:10,0.924,1.456,0.952,1.743,1.204,0.507,0.931,0.858,���쓌,2.2,��
2017/09/08,14:20,0.927,1.455,0.954,1.741,1.205,0.509,0.933,0.859,��,2.6,��
2017/09/08,14:30,0.927,1.456,0.952,1.743,1.205,0.508,0.933,0.858,��,2.3,��
2017/09/08,14:40,0.925,1.457,0.952,1.743,1.208,0.510,0.932,0.858,��,2.8,��
2017/09/08,14:50,0.926,1.456,0.955,1.742,1.209,0.508,0.931,0.860,���쓌,2.3,��
2017/09/08,15:00,0.928,1.458,0.954,1.741,1.207,0.507,0.933,0.860,��,2.0,��
2017/09/08,15:10,0.928,1.459,0.956,1.742,1.205,0.509,0.932,0.859,��,2.3,��
2017/09/08,15:20,0.925,1.458,0.953,1.739,1.208,0.509,0.934,0.860,��,2.3,��
2017/09/08,15:30,0.926,1.459,0.953,1.740,1.209,0.510,0.932,0.859,��,2.3,��
2017/09/08,15:40,0.927,1.460,0.954,1.739,1.207,0.509,0.934,0.858,��,2.0,��
2017/09/08,15:50,0.927,1.458,0.954,1.741,1.209,0.508,0.934,0.859,��,2.9,��
2017/09/08,16:00,0.927,1.459,0.954,1.740,1.208,0.509,0.931,0.860,���쓌,2.2,��
2017/09/08,16:10,0.925,1.459,0.955,1.741,1.209,0.509,0.933,0.858,�쓌,2.8,��
2017/09/08,16:20,0.926,1.460,0.955,1.743,1.209,0.508,0.932,0.857,�쓌,2.6,��
2017/09/08,16:30,0.926,1.463,0.956,1.741,1.209,0.509,0.932,0.857,��쓌,2.6,��
2017/09/08,16:40,0.929,1.458,0.954,1.741,1.209,0.510,0.933,0.858,��쓌,3.3,��
2017/09/08,16:50,0.927,1.459,0.954,1.745,1.210,0.509,0.935,0.856,��쓌,3.2,��
2017/09/08,17:00,0.926,1.460,0.956,1.741,1.209,0.508,0.932,0.859,��쓌,3.2,��
2017/09/08,17:10,0.926,1.459,0.953,1.744,1.208,0.511,0.933,0.860,��,2.6,��
2017/09/08,17:20,0.927,1.460,0.953,1.741,1.212,0.510,0.931,0.857,��쓌,3.1,��
2017/09/08,17:30,0.927,1.460,0.955,1.743,1.207,0.512,0.932,0.858,��쓌,3.1,��
2017/09/08,17:40,0.928,1.465,0.955,1.740,1.210,0.510,0.932,0.861,��쓌,1.7,��
2017/09/08,17:50,0.925,1.462,0.952,1.740,1.211,0.512,0.931,0.860,��쓌,2.3,��
2017/09/08,18:00,0.925,1.464,0.953,1.743,1.209,0.511,0.934,0.861,�쓌,2.2,��
2017/09/08,18:10,0.927,1.464,0.954,1.743,1.212,0.511,0.934,0.862,���쓌,2.0,��
2017/09/08,18:20,0.929,1.466,0.955,1.743,1.213,0.511,0.933,0.860,�쓌,1.7,��
2017/09/08,18:30,0.928,1.465,0.957,1.746,1.211,0.511,0.931,0.862,���쓌,2.0,��
2017/09/08,18:40,0.929,1.464,0.958,1.745,1.210,0.511,0.933,0.861,�쓌,2.0,��
2017/09/08,18:50,0.928,1.464,0.957,1.746,1.212,0.512,0.932,0.860,�쓌,2.0,��
2017/09/08,19:00,0.931,1.465,0.957,1.747,1.211,0.511,0.933,0.860,�쓌,2.0,��
2017/09/08,19:10,0.929,1.464,0.955,1.747,1.211,0.511,0.934,0.860,�쓌,1.2,��
2017/09/08,19:20,0.929,1.466,0.956,1.745,1.212,0.511,0.934,0.860,�쓌,2.0,��
2017/09/08,19:30,0.929,1.464,0.953,1.744,1.211,0.511,0.933,0.861,��,1.5,��
2017/09/08,19:40,0.927,1.465,0.956,1.745,1.211,0.509,0.935,0.860,��쓌,1.5,��
2017/09/08,19:50,0.928,1.464,0.958,1.745,1.212,0.511,0.933,0.860,��쓌,1.5,��
2017/09/08,20:00,0.929,1.464,0.957,1.744,1.211,0.512,0.934,0.862,��쓌,1.7,��
2017/09/08,20:10,0.927,1.465,0.955,1.744,1.211,0.511,0.934,0.861,��,1.4,��
2017/09/08,20:20,0.928,1.465,0.955,1.746,1.212,0.510,0.934,0.860,��쓌,1.2,��
2017/09/08,20:30,0.929,1.464,0.955,1.744,1.209,0.511,0.935,0.859,��쓌,1.2,��
2017/09/08,20:40,0.928,1.463,0.957,1.745,1.210,0.513,0.933,0.859,��,1.4,��
2017/09/08,20:50,0.927,1.462,0.956,1.746,1.211,0.512,0.935,0.861,��,1.7,��
2017/09/08,21:00,0.926,1.465,0.958,1.747,1.211,0.510,0.935,0.861,��쐼,1.7,��
2017/09/08,21:10,0.927,1.465,0.955,1.744,1.211,0.511,0.933,0.859,��쐼,1.7,��
2017/09/08,21:20,0.929,1.462,0.956,1.747,1.212,0.510,0.934,0.861,��쐼,1.4,��
2017/09/08,21:30,0.927,1.461,0.955,1.746,1.212,0.511,0.933,0.861,�쐼,1.4,��
2017/09/08,21:40,0.926,1.464,0.956,1.748,1.211,0.509,0.934,0.862,��,1.1,��
2017/09/08,21:50,0.924,1.463,0.955,1.746,1.213,0.511,0.934,0.862,�쐼,0.9,��
2017/09/08,22:00,0.925,1.463,0.956,1.744,1.214,0.510,0.934,0.861,���쐼,0.6,��
2017/09/08,22:10,0.927,1.464,0.956,1.747,1.213,0.510,0.933,0.860,�k��,1.2,��
2017/09/08,22:20,0.927,1.462,0.956,1.748,1.213,0.512,0.932,0.860,���쐼,0.9,��
2017/09/08,22:30,0.925,1.463,0.957,1.745,1.212,0.511,0.933,0.861,���쐼,0.8,��
2017/09/08,22:40,0.925,1.460,0.957,1.745,1.212,0.510,0.932,0.860,��쐼,1.1,��
2017/09/08,22:50,0.925,1.461,0.954,1.745,1.211,0.511,0.933,0.860,�쐼,0.8,��
2017/09/08,23:00,0.926,1.462,0.953,1.746,1.212,0.511,0.934,0.862,��,2.2,��
2017/09/08,23:10,0.927,1.464,0.955,1.744,1.212,0.509,0.935,0.860,���k��,3.1,��
2017/09/08,23:20,0.926,1.459,0.956,1.744,1.209,0.508,0.934,0.860,���k��,3.4,��
2017/09/08,23:30,0.926,1.462,0.956,1.743,1.210,0.511,0.934,0.860,���k��,3.3,��
2017/09/08,23:40,0.925,1.460,0.957,1.747,1.211,0.510,0.935,0.859,�k��,3.1,��
2017/09/08,23:50,0.926,1.463,0.956,1.744,1.209,0.510,0.932,0.860,�k��,4.0,��
